This is the latest recevied weather packets stored in our database for station/object DH4SBM. If no packets are shown the sender has not sent any weather packets the latest 1 day(s).
| Time | Temp. | Humidity | Pressure | Rain* | Wind** | Luminosity | Snow |
|---|---|---|---|---|---|---|---|
| 1778017543 | 12.22° C | 92% | 1009.5 hPa | 0 mm | 0.45 m/s, 202° | 0 W/m² | - |
| 1778016943 | 12.22° C | 92% | 1009.5 hPa | 0 mm | 0.45 m/s, 202° | 0 W/m² | - |
| 1778016343 | 12.22° C | 92% | 1009.5 hPa | 0 mm | 0.89 m/s, 202° | 0 W/m² | - |
| 1778015743 | 12.22° C | 91% | 1009.5 hPa | 0 mm | 0.45 m/s, 202° | 0 W/m² | - |
| 1778015143 | 12.22° C | 91% | 1009.5 hPa | 0 mm | 0.89 m/s, 202° | 0 W/m² | - |
| 1778014543 | 12.78° C | 91% | 1009.2 hPa | 0 mm | 1.79 m/s, 225° | 0 W/m² | - |
| 1778013943 | 12.78° C | 91% | 1009.3 hPa | 0 mm | 1.79 m/s, 225° | 0 W/m² | - |
| 1778013343 | 12.78° C | 91% | 1009.4 hPa | 0 mm | 0.89 m/s, 225° | 0 W/m² | - |
| 1778012743 | 13.33° C | 91% | 1009.3 hPa | 0 mm | 1.34 m/s, 248° | 0 W/m² | - |
| 1778012143 | 13.33° C | 91% | 1009 hPa | 0 mm | 1.34 m/s, 225° | 0 W/m² | - |
| 1778011543 | 13.33° C | 91% | 1008.9 hPa | 0 mm | 1.34 m/s, 225° | 0 W/m² | - |
| 1778010943 | 13.33° C | 91% | 1008.8 hPa | 0 mm | 1.34 m/s, 202° | 0 W/m² | - |
| 1778010343 | 13.33° C | 91% | 1008.6 hPa | 0 mm | 1.34 m/s, 180° | 0 W/m² | - |
| 1778009743 | 13.33° C | 91% | 1008.6 hPa | 0 mm | 0.89 m/s, 180° | 0 W/m² | - |
| 1778009143 | 13.89° C | 90% | 1008.5 hPa | 0 mm | 0.45 m/s, 180° | 0 W/m² | - |
| 1778008543 | 13.89° C | 90% | 1008.5 hPa | 0 mm | 0 m/s | 0 W/m² | - |
| 1778007943 | 13.89° C | 89% | 1008.5 hPa | 0.25 mm | 0.45 m/s, 180° | 0 W/m² | - |
| 1778007343 | 14.44° C | 89% | 1008.4 hPa | 0.51 mm | 0.45 m/s, 180° | 0 W/m² | - |
| 1778006743 | 14.44° C | 88% | 1008.6 hPa | 0.76 mm | 0 m/s | 0 W/m² | - |
| 1778006218 | 14.44° C | 88% | 1008.5 hPa | 0.76 mm | 0 m/s | 0 W/m² | - |
| 1778005618 | 14.44° C | 88% | 1008.4 hPa | 0.76 mm | 0 m/s | 7 W/m² | - |
| 1778005018 | 15° C | 87% | 1008.3 hPa | 0.76 mm | 0 m/s | 5 W/m² | - |
| 1778004418 | 15° C | 87% | 1008.2 hPa | 0.51 mm | 0 m/s | 7 W/m² | - |
| 1778003818 | 15° C | 86% | 1008.2 hPa | 0.25 mm | 0 m/s | 11 W/m² | - |
| 1778003218 | 15° C | 86% | 1008.6 hPa | 0 mm | 0.89 m/s, 225° | 7 W/m² | - |
* Rain latest hour (hover to see other rain measurements)
** Current wind speed in m/s (hover to see current wind gust speed)